When you browse on this site, cookies collect data to enhance your experience and personalize the content and advertising you see.
Visit our Privacy Policy to learn more. By continuing to use the site, you agree to this use of cookies and data.
  • In Hungary
  • List of Countries
  • For 7 days
  • Water Temperature
  • Weather Map
  • News
  • Weather Widgets
  • user-avatar
    Login

    Hourly Weather Cheremisskaya

    Today, 28 January, Tuesday

    Time Temperature Precipitation Wind Pressure Humidity
    00:00 -24°C° 0 mm 3 mps 735 mmHg 95%
    01:00 -25°C° 0 mm 3 mps 736 mmHg 95%
    02:00 -25°C° 0 mm 3 mps 736 mmHg 94%
    03:00 -25°C° 0 mm 3 mps 737 mmHg 94%
    04:00 -25°C° 0 mm 3 mps 738 mmHg 94%
    05:00 -26°C° 0 mm 4 mps 738 mmHg 93%
    06:00 -26°C° 0 mm 4 mps 739 mmHg 93%
    07:00 -26°C° 0 mm 4 mps 739 mmHg 92%
    08:00 -26°C° 0 mm 4 mps 740 mmHg 91%
    09:00 -26°C° 0 mm 5 mps 741 mmHg 90%
    10:00 -25°C° 0 mm 5 mps 742 mmHg 89%
    11:00 -24°C° 0 mm 5 mps 743 mmHg 88%
    12:00 -22°C° 0 mm 5 mps 743 mmHg 87%
    13:00 -21°C° 0 mm 5 mps 744 mmHg 85%
    14:00 -22°C° 0 mm 5 mps 745 mmHg 86%
    15:00 -23°C° 0 mm 4 mps 746 mmHg 87%
    16:00 -23°C° 0 mm 4 mps 746 mmHg 87%
    17:00 -24°C° 0 mm 4 mps 747 mmHg 88%
    18:00 -24°C° 0 mm 4 mps 748 mmHg 88%
    19:00 -26°C° 0 mm 5 mps 749 mmHg 88%
    20:00 -26°C° 0 mm 5 mps 749 mmHg 88%
    21:00 -25°C° 0 mm 4 mps 750 mmHg 88%
    22:00 -26°C° 0 mm 4 mps 751 mmHg 88%
    23:00 -26°C° 0 mm 4 mps 751 mmHg 88%

    Tomorrow, 29 January, Wednesday

    Time Temperature Precipitation Wind Pressure Humidity
    00:00 -27°C° 0 mm 4 mps 752 mmHg 89%
    01:00 -27°C° 0 mm 4 mps 752 mmHg 89%
    02:00 -26°C° 0 mm 3 mps 753 mmHg 89%
    03:00 -27°C° 0 mm 3 mps 753 mmHg 90%
    04:00 -27°C° 0 mm 3 mps 753 mmHg 90%
    05:00 -29°C° 0 mm 3 mps 754 mmHg 91%
    06:00 -29°C° 0 mm 3 mps 754 mmHg 91%
    07:00 -30°C° 0 mm 3 mps 755 mmHg 92%
    08:00 -29°C° 0 mm 3 mps 755 mmHg 91%
    09:00 -26°C° 0 mm 2 mps 755 mmHg 91%
    10:00 -25°C° 0 mm 2 mps 755 mmHg 90%
    11:00 -24°C° 0 mm 2 mps 755 mmHg 89%
    12:00 -21°C° 0 mm 2 mps 755 mmHg 89%
    13:00 -20°C° 0 mm 2 mps 755 mmHg 88%
    14:00 -20°C° 0 mm 2 mps 755 mmHg 89%
    15:00 -21°C° 0 mm 2 mps 755 mmHg 90%
    16:00 -21°C° 0 mm 2 mps 756 mmHg 92%
    17:00 -21°C° 0 mm 2 mps 756 mmHg 91%
    18:00 -20°C° 0 mm 2 mps 756 mmHg 91%
    19:00 -20°C° 0 mm 2 mps 756 mmHg 90%
    20:00 -20°C° 0 mm 2 mps 756 mmHg 90%
    21:00 -20°C° 0 mm 2 mps 756 mmHg 90%
    22:00 -20°C° 0 mm 2 mps 755 mmHg 90%
    23:00 -19°C° 0 mm 2 mps 755 mmHg 89%

    Day after tomorrow, 30 January, Thursday

    Time Temperature Precipitation Wind Pressure Humidity
    00:00 -19°C° 0 mm 2 mps 755 mmHg 88%
    01:00 -19°C° 0 mm 2 mps 755 mmHg 87%
    02:00 -19°C° 0 mm 2 mps 755 mmHg 87%
    03:00 -19°C° 0 mm 2 mps 755 mmHg 86%
    04:00 -18°C° 0 mm 2 mps 755 mmHg 86%
    05:00 -19°C° 0 mm 2 mps 754 mmHg 86%
    06:00 -19°C° 0 mm 2 mps 754 mmHg 86%
    07:00 -19°C° 0 mm 2 mps 754 mmHg 86%
    08:00 -19°C° 0 mm 2 mps 754 mmHg 86%
    09:00 -19°C° 0 mm 3 mps 754 mmHg 86%
    10:00 -19°C° 0 mm 3 mps 754 mmHg 86%
    11:00 -18°C° 0 mm 3 mps 754 mmHg 86%
    12:00 -18°C° 0 mm 3 mps 753 mmHg 86%
    13:00 -17°C° 0 mm 3 mps 753 mmHg 85%
    14:00 -17°C° 0 mm 3 mps 753 mmHg 88%
    15:00 -18°C° 0 mm 3 mps 752 mmHg 90%
    16:00 -17°C° 0 mm 2 mps 752 mmHg 93%
    17:00 -18°C° 0 mm 3 mps 752 mmHg 94%
    18:00 -18°C° 0 mm 3 mps 752 mmHg 95%
    19:00 -19°C° 0 mm 3 mps 752 mmHg 96%
    20:00 -19°C° 0 mm 3 mps 752 mmHg 96%
    21:00 -18°C° 0 mm 2 mps 752 mmHg 96%
    22:00 -17°C° 0 mm 2 mps 751 mmHg 97%
    23:00 -17°C° 0 mm 2 mps 751 mmHg 96%

    31 January, Friday

    Time Temperature Precipitation Wind Pressure Humidity
    00:00 -17°C° 0 mm 2 mps 751 mmHg 96%
    01:00 -17°C° 0 mm 2 mps 751 mmHg 96%
    02:00 -17°C° 0 mm 2 mps 751 mmHg 96%
    03:00 -17°C° 0 mm 2 mps 751 mmHg 96%
    04:00 -17°C° 0 mm 2 mps 751 mmHg 96%
    05:00 -16°C° 0 mm 2 mps 751 mmHg 96%
    06:00 -16°C° 0 mm 2 mps 751 mmHg 96%
    07:00 -16°C° 0 mm 2 mps 750 mmHg 96%
    08:00 -15°C° 0 mm 2 mps 750 mmHg 96%
    09:00 -14°C° 0 mm 2 mps 750 mmHg 95%
    10:00 -13°C° 0 mm 2 mps 750 mmHg 95%
    11:00 -12°C° 0 mm 2 mps 750 mmHg 95%
    12:00 -10°C° 0 mm 2 mps 750 mmHg 94%
    13:00 -10°C° 0 mm 2 mps 750 mmHg 94%
    14:00 -10°C° 0 mm 2 mps 750 mmHg 95%
    15:00 -10°C° 0 mm 2 mps 750 mmHg 95%
    16:00 -12°C° 0 mm 2 mps 750 mmHg 96%
    17:00 -14°C° 0 mm 3 mps 750 mmHg 95%
    18:00 -14°C° 0 mm 3 mps 750 mmHg 95%
    19:00 -15°C° 0 mm 3 mps 750 mmHg 94%
    20:00 -15°C° 0 mm 3 mps 749 mmHg 93%
    21:00 -15°C° 0 mm 3 mps 749 mmHg 91%
    22:00 -16°C° 0 mm 4 mps 749 mmHg 90%
    23:00 -16°C° 0 mm 4 mps 749 mmHg 88%

    1 February, Saturday

    Time Temperature Precipitation Wind Pressure Humidity
    00:00 -16°C° 0 mm 4 mps 749 mmHg 87%
    01:00 -15°C° 0 mm 4 mps 748 mmHg 86%
    02:00 -15°C° 0 mm 4 mps 748 mmHg 86%
    03:00 -15°C° 0 mm 5 mps 748 mmHg 86%
    04:00 -15°C° 0 mm 5 mps 748 mmHg 86%
    05:00 -15°C° 0 mm 5 mps 748 mmHg 86%
    06:00 -15°C° 0 mm 5 mps 748 mmHg 86%
    07:00 -15°C° 0 mm 5 mps 748 mmHg 87%
    08:00 -15°C° 0 mm 5 mps 747 mmHg 86%
    09:00 -15°C° 0 mm 5 mps 747 mmHg 85%
    10:00 -14°C° 0 mm 5 mps 747 mmHg 85%
    11:00 -14°C° 0 mm 5 mps 747 mmHg 85%
    12:00 -13°C° 0 mm 5 mps 747 mmHg 85%
    13:00 -13°C° 0 mm 5 mps 747 mmHg 86%
    14:00 -13°C° 0 mm 5 mps 747 mmHg 87%
    15:00 -13°C° 0 mm 5 mps 747 mmHg 88%
    16:00 -12°C° 0 mm 4 mps 747 mmHg 89%
    17:00 -14°C° 0 mm 4 mps 746 mmHg 90%
    18:00 -14°C° 0 mm 4 mps 746 mmHg 91%
    19:00 -15°C° 0 mm 4 mps 746 mmHg 92%
    20:00 -15°C° 0 mm 4 mps 746 mmHg 91%
    21:00 -15°C° 0 mm 4 mps 746 mmHg 91%
    22:00 -15°C° 0 mm 4 mps 746 mmHg 91%
    23:00 -15°C° 0 mm 4 mps 746 mmHg 91%

    2 February, Sunday

    Time Temperature Precipitation Wind Pressure Humidity
    00:00 -14°C° 0 mm 4 mps 745 mmHg 92%
    01:00 -14°C° 0 mm 4 mps 745 mmHg 92%
    02:00 -14°C° 0.4 mm 4 mps 745 mmHg 93%
    03:00 -13°C° 0.4 mm 3 mps 745 mmHg 94%
    04:00 -13°C° 0.4 mm 3 mps 745 mmHg 95%
    05:00 -13°C° 0.1 mm 3 mps 745 mmHg 95%
    06:00 -13°C° 0.1 mm 2 mps 745 mmHg 95%
    07:00 -13°C° 0.1 mm 2 mps 745 mmHg 96%
    08:00 -13°C° 0 mm 2 mps 746 mmHg 95%
    09:00 -13°C° 0 mm 2 mps 746 mmHg 95%
    10:00 -13°C° 0 mm 2 mps 746 mmHg 95%
    11:00 -12°C° 0 mm 2 mps 746 mmHg 94%
    12:00 -9°C° 0 mm 1 mps 746 mmHg 93%
    13:00 -8°C° 0 mm 1 mps 746 mmHg 93%
    14:00 -8°C° 0 mm 1 mps 746 mmHg 93%
    15:00 -9°C° 0 mm 1 mps 746 mmHg 93%
    16:00 -9°C° 0 mm 1 mps 746 mmHg 94%
    17:00 -10°C° 0 mm 1 mps 747 mmHg 94%
    18:00 -10°C° 0 mm 1 mps 747 mmHg 94%
    19:00 -11°C° 0 mm 1 mps 747 mmHg 94%
    20:00 -11°C° 0 mm 1 mps 747 mmHg 94%
    21:00 -12°C° 0 mm 1 mps 747 mmHg 94%
    22:00 -12°C° 0 mm 1 mps 747 mmHg 94%
    23:00 -12°C° 0 mm 1 mps 747 mmHg 95%
    Show more